This is the latest recevied weather packets stored in our database for station/object W2JBO-5. If no packets are shown the sender has not sent any weather packets the latest 10 day(s).
| Time | Temp. | Humidity | Pressure | Rain* | Wind** | Luminosity | Snow |
|---|---|---|---|---|---|---|---|
| 1777567927 | 22.22° C | 99% | 1025.2 hPa | 0 mm | - | 198 W/m² | - |
| 1777567624 | 22.22° C | 99% | 1025.2 hPa | 0 mm | - | 283 W/m² | - |
| 1777567321 | 22.22° C | 99% | 1025.2 hPa | 0 mm | - | 274 W/m² | - |
| 1777567020 | 22.22° C | 99% | 1025.2 hPa | 0 mm | - | 280 W/m² | - |
| 1777566717 | 22.22° C | 99% | 1025.2 hPa | 0 mm | - | 161 W/m² | - |
| 1777566415 | 22.22° C | 99% | 1025.2 hPa | 0 mm | - | 470 W/m² | - |
| 1777566111 | 21.67° C | 99% | 1025.2 hPa | 0 mm | - | 311 W/m² | - |
| 1777565807 | 22.22° C | 99% | 1025.2 hPa | 0 mm | - | 659 W/m² | - |
| 1777565503 | 21.11° C | 99% | 1025.2 hPa | 0 mm | - | 609 W/m² | - |
| 1777565200 | 21.11° C | 99% | 1012.2 hPa | 1.78 mm | - | 385 W/m² | - |
| 1777564896 | 20.56° C | 99% | 1012.2 hPa | 3.05 mm | - | 280 W/m² | - |
| 1777564591 | 20.56° C | 99% | 1012.2 hPa | 3.05 mm | - | 140 W/m² | - |
| 1777564287 | 20.56° C | 99% | 1012.2 hPa | 3.05 mm | - | 79 W/m² | - |
| 1777563983 | 20° C | 99% | 1012.2 hPa | 0 mm | - | 36 W/m² | - |
| 1777563680 | 20° C | 99% | 1012.2 hPa | 0 mm | - | 32 W/m² | - |
| 1777563375 | 20° C | 99% | 1012.2 hPa | 0 mm | - | 39 W/m² | - |
| 1777563070 | 20° C | 99% | 1012.1 hPa | 0 mm | - | 36 W/m² | - |
| 1777562766 | 20° C | 99% | 1012.1 hPa | 0 mm | - | 42 W/m² | - |
| 1777562465 | 20° C | 99% | 1012.7 hPa | 0 mm | - | 78 W/m² | - |
| 1777562161 | 20° C | 99% | - | 0 mm | - | - | - |
| 1777561859 | 20° C | 99% | - | 0 mm | - | - | - |
| 1777561556 | 20° C | 99% | - | 0 mm | - | - | - |
| 1777561251 | 20° C | 99% | - | 0 mm | - | - | - |
| 1777560950 | 20° C | 99% | - | 0 mm | - | - | - |
| 1777560647 | 20° C | 99% | - | 0 mm | - | - | - |
* Rain latest hour (hover to see other rain measurements)
** Current wind speed in m/s (hover to see current wind gust speed)